                ,  0.721,  0.869,  1.017,  1.165,  1.312,  1.460,  1.608,  1.756,  1.904,  2.052,  2.199,  2.347,  2.495,  2.643,  2.791,  2.938,  3.086,  3.234,  3.382,  3.530,  3.677,  3.825,  3.973,  4.121,  4.269,  4.417,  4.564,  4.712,  4.860,  5.008,  5.156,  5.303
1999/08/09 00:00,  999.0,  999.0,  999.0,  999.0,  999.0,  999.0,  999.0,  999.0,  999.0,  999.0,  999.0,  999.0,  999.0,  999.0,  999.0,  999.0,  999.0,  999.0,  999.0,  999.0,  999.0,  999.0,  999.0,  999.0,  999.0,  999.0,  999.0,  999.0,  999.0,  999.0,  999.0,  999.0
1999/08/09 00:10,  -10.2,  -10.4,  -11.1,  -13.0,  -12.7,  -12.8,  -12.7,  -11.9,  -12.2,  -12.1,  -10.5,   -9.0,  999.0,   -6.6,   -4.4,   -3.2,  999.0,   -1.5,  999.0,  999.0,  999.0,   -3.7,  999.0,   -4.4,   -5.2,   -5.6,   -6.4,   -7.0,   -7.6,   -8.4,   -8.4,   -8.8
1999/08/09 00:20,   -9.7,  -11.6,  -12.4,  -11.1,  -11.5,  -11.3,  -11.3,  -11.6,  -11.4,  -11.3,  -10.2,   -9.6,   -8.3,   -8.2,   -5.2,   -3.2,   -2.6,  999.0,  999.0,   -3.2,   -4.2,  999.0,   -5.3,  999.0,  999.0,   -6.7,   -6.6,   -7.5,   -8.1,   -8.6,  999.0,   -9.0
1999/08/09 00:30,  -11.8,  -12.5,  -12.3,  -10.8,  -10.1,  -10.1,  -10.2,  -11.2,  -11.2,  -10.9,  -10.0,   -9.4,   -8.8,   -7.5,   -5.3,  999.0,   -2.7,  999.0,   -2.8,   -4.1,   -5.1,   -6.1,  999.0,   -7.2,   -7.4,   -7.6,   -7.8,   -8.2,   -8.9,   -8.9,   -9.7,  999.0
1999/08/09 00:40,  -11.7,  -11.7,  -11.5,  -11.6,  -11.0,  -11.0,  -11.3,  -11.3,  -11.6,  -11.8,  -11.9,  -10.6,   -9.4,   -8.2,   -4.8,   -3.7,  999.0,  999.0,   -3.2,   -4.5,   -4.6,  999.0,   -6.0,  999.0,   -5.8,   -6.1,   -6.6,   -7.3,  999.0,  999.0,   -8.5,  999.0
1999/08/09 00:50,  -11.3,  -12.1,  -12.4,  -11.8,  -12.0,  -11.5,  -11.5,  -11.4,  -11.4,  -12.1,  -11.9,  -11.2,   -8.8,   -8.4,  999.0,  999.0,  999.0,   -1.8,   -1.9,  999.0,   -3.0,  999.0,   -4.1,  999.0,   -4.7,   -5.5,   -5.8,   -6.8,  999.0,   -7.7,  999.0,  999.0
1999/08/09 01:00,  -11.4,  -11.3,  -12.4,  -12.8,  -11.0,  -11.4,  -11.2,  -10.5,  -11.0,  -12.0,  -11.5,  -10.8,   -8.5,   -8.1,  999.0,  999.0,  999.0,   -1.9,   -2.3,   -3.2,   -3.8,   -4.5,   -4.7,  999.0,   -5.9,   -6.4,   -8.3,  999.0,   -9.2,   -8.3,  -10.0,  -10.5
1999/08/09 01:10,  -10.3,  -12.0,  -12.1,  -12.5,  -10.0,   -9.1,   -9.5,  -10.3,  -10.5,  -10.3,  -10.0,   -9.2,   -7.4,   -6.4,   -5.8,   -4.7,   -4.0,   -2.9,   -1.7,   -3.2,   -4.4,  999.0,   -5.8,   -5.9,   -6.8,   -6.9,   -8.2,   -9.1,   -9.2,   -9.6,   -9.8,  999.0
1999/08/09 01:20,  -12.4,  -12.6,  -12.9,  -13.2,  -12.8,  -12.2,  -12.1,  -10.6,  -10.0,   -9.5,   -8.8,   -7.5,   -6.1,   -3.4,   -2.7,   -0.9,  999.0,   -1.0,  999.0,   -3.8,  999.0,  999.0,  999.0,  999.0,   -6.9,  999.0,   -8.2,   -9.3,  999.0,   -9.6,  -10.3,  999.0
1999/08/09 01:30,  -11.3,  -11.7,  -12.1,  -12.4,  -12.9,  -12.8,  -11.6,  -10.7,   -8.9,   -9.0,   -8.3,   -6.9,   -5.2,   -2.5,  999.0,   -0.7,    1.0,   -0.2,   -1.6,   -3.3,  999.0,   -4.9,  999.0,  999.0,   -7.1,   -7.6,   -8.3,   -9.3,   -9.4,   -9.8,  999.0,  999.0
1999/08/09 01:40,  -10.2,  -12.4,  -12.2,  -12.1,  -12.3,  -12.8,  -12.7,  -11.4,   -9.5,   -8.1,   -7.9,   -7.1,   -5.2,   -3.6,   -2.5,   -1.6,   -0.8,  999.0,   -1.0,   -1.3,   -3.2,   -5.1,   -6.4,   -7.6,   -8.1,  999.0,   -8.3,   -9.5,   -9.4,  999.0,  -11.2,  999.0
1999/08/09 01:50,  -11.2,  -11.1,  -12.3,  -12.8,  -12.0,  -11.9,  -12.0,  -10.5,   -8.6,   -7.7,   -7.4,   -5.9,   -3.7,   -2.2,   -1.1,   -1.3,   -1.1,   -0.4,  999.0,  999.0,  999.0,   -4.7,   -5.7,   -6.0,   -7.5,   -7.0,   -7.9,   -8.2,  999.0,  999.0,  999.0,  999.0
1999/08/09 02:00,  -12.3,  -12.4,  -12.1,  -11.5,  -11.3,  -10.6,  -10.4,   -9.7,   -9.0,   -7.6,   -5.9,   -4.9,   -3.7,   -2.6,   -2.7,   -2.4,   -2.9,   -2.7,   -3.5,   -3.7,   -4.8,   -5.3,   -6.7,   -7.3,   -6.5,   -8.5,   -9.0,  999.0,  -10.1,  999.0,  999.0,  999.0
1999/08/09 02:10,  -11.2,  -12.0,  -12.1,  -12.4,  -11.4,   -9.7,  -10.1,  -10.1,  -10.2,   -9.4,   -9.2,   -7.9,   -6.6,  999.0,   -4.8,   -3.9,   -4.2,   -3.3,   -2.7,   -3.5,   -4.6,   -5.7,   -6.2,  999.0,  999.0,   -8.1,   -7.7,  999.0,  999.0,  999.0,  999.0,  999.0
1999/08/09 02:20,  -11.7,  -11.6,  -12.2,  -12.0,  -11.4,   -9.5,  -10.5,  -11.2,  -10.8,  -10.3,   -9.6,   -8.8,   -8.0,   -6.1,   -6.2,   -5.3,   -5.1,   -3.7,   -2.7,   -3.4,   -4.8,   -5.7,  999.0,  999.0,   -6.9,   -7.5,  999.0,   -7.3,  999.0,  999.0,  999.0,  999.0
1999/08/09 02:30,  -10.5,  -10.5,  -11.2,  -10.5,  -10.8,  -10.3,   -9.4,   -8.7,   -9.2,   -9.8,   -9.3,   -7.8,   -6.2,   -4.2,   -3.5,   -3.1,   -3.7,   -4.0,   -4.9,   -6.9,   -8.3,   -9.8,  -10.2,  -10.3,  -10.5,   -9.0,   -9.2,   -9.2,   -9.4,   -8.8,   -9.4,  999.0
1999/08/09 02:40,  -11.5,  -11.3,  -11.6,  -11.4,  -12.0,  -11.5,  -10.3,   -9.0,   -8.8,   -8.5,   -8.3,   -7.7,   -7.7,   -4.0,   -4.7,   -5.2,   -5.9,   -5.4,   -5.5,   -6.5,   -8.1,   -9.4,  -11.0,  -11.8,  -12.7,  999.0,  -12.0,  -11.8,  999.0,  999.0,  -13.1,  999.0
1999/08/09 02:50,  -11.4,  -11.6,  -11.3,  -11.1,  -11.9,  -11.6,  -10.2,   -9.0,   -7.9,   -7.3,   -7.5,   -6.7,   -6.4,   -5.3,   -4.6,  999.0,   -2.5,   -2.8,   -2.3,   -3.5,   -5.0,   -6.9,   -6.4,   -8.1,   -9.7,  -10.8,  999.0,  999.0,  999.0,  999.0,  999.0,  999.0
1999/08/09 03:00,  -11.8,  -11.4,  -11.8,  -11.5,  -11.7,  -11.2,   -9.9,   -9.2,   -8.7,   -7.9,   -7.6,   -7.6,   -6.7,  999.0,   -5.2,   -4.7,   -4.1,   -3.3,   -4.3,   -6.5,   -7.5,  999.0,   -8.3,   -9.2,   -9.3,   -9.4,   -9.5,  -10.6,  999.0,  999.0,  999.0,  999.0
1999/08/09 03:10,  -11.9,  -11.6,  -11.6,  -11.9,  -12.5,  -12.8,  -11.0,   -9.6,   -9.0,   -8.6,   -8.3,   -8.6,   -7.9,   -5.7,   -5.8,   -5.0,   -3.5,   -2.2,   -3.1,   -3.9,   -6.4,   -8.0,   -9.6,  -10.6,   -9.8,   -9.9,  999.0,  999.0,  999.0,  999.0,  999.0,  999.0
1999/08/09 03:20,  -11.6,  -13.2,  -11.2,  -12.0,  -12.6,  -13.0,  -10.8,   -8.9,   -8.4,   -8.4,   -7.6,   -6.9,   -7.9,   -6.6,  999.0,   -4.9,   -4.8,   -4.9,   -5.2,   -6.9,   -9.7,  999.0,  -11.4,  999.0,   -9.6,   -9.3,  999.0,  -11.6,  999.0,  999.0,  999.0,  999.0
1999/08/09 03:30,  -11.6,  -11.5,  -11.8,  -11.4,  -11.8,  -12.3,  -12.1,  -10.2,   -8.9,  999.0,   -6.1,   -5.7,   -5.3,   -5.1,   -4.3,   -3.3,   -2.8,   -2.3,   -2.6,   -3.6,   -4.5,   -7.3,  999.0,  999.0,  999.0,  999.0,  999.0,   -9.7,  999.0,  999.0,  999.0,  999.0
1999/08/09 03:40,  -11.1,  -11.8,  -12.5,  -12.6,  -12.7,  -12.8,  -11.0,   -9.0,   -7.3,   -5.7,   -4.6,  999.0,   -4.9,   -4.8,   -4.2,   -3.4,   -4.1,   -4.3,  999.0,   -3.4,   -5.3,   -7.3,  999.0,  999.0,  999.0,   -8.8,  999.0,  999.0,  999.0,  999.0,  999.0,  999.0
1999/08/09 03:50,  -10.9,  -11.6,  -12.0,  -12.2,  -12.5,  -12.7,  -12.0,   -9.9,   -7.9,   -7.5,   -6.6,   -5.1,   -5.4,   -6.2,   -5.8,  999.0,   -2.3,   -3.6,   -3.9,   -3.4,   -2.0,  999.0,  999.0,  999.0,   -6.2,   -6.6,  999.0,   -8.5,  999.0,  999.0,  999.0,  999.0
1999/08/09 04:00,  -11.1,  -11.8,  -12.2,  -12.2,  -12.5,  -12.4,  -11.9,   -9.9,   -8.6,   -7.7,   -6.9,   -6.5,   -6.4,   -8.3,   -7.7,   -5.4,   -5.2,   -4.4,   -3.7,   -3.3,   -3.5,  999.0,  999.0,   -6.0,   -6.3,  999.0,   -8.0,  999.0,  999.0,  -10.7,  999.0,  -10.8
1999/08/09 04:10,  -11.7,  -11.8,  -12.5,  -12.9,  -13.6,  -13.3,  -11.7,  -10.2,   -9.5,   -9.6,   -8.4,   -8.4,  999.0,  999.0,   -6.6,   -4.8,   -5.4,  999.0,   -2.5,  999.0,   -2.6,  999.0,   -5.0,  999.0,   -5.3,   -6.4,   -7.0,   -8.1,   -8.9,   -9.4,  -10.1,  -11.3
1999/08/09 04:20,  -11.8,  -12.0,  -12.2,  -11.9,  -12.2,  -12.5,  -11.7,  -10.5,   -8.1,   -7.9,   -7.4,  999.0,   -4.8,  999.0,   -7.1,  999.0,   -4.9,   -3.8,   -4.4,  999.0,  999.0,  999.0,   -4.4,   -5.1,   -5.9,   -7.2,  999.0,   -9.0,   -8.6,   -9.7,  -10.6,  -12.1
1999/08/09 04:30,  -11.6,  -11.9,  -11.8,  -12.4,  -12.7,  -12.5,  -11.3,  -10.2,   -9.2,   -7.9,   -8.1,  999.0,   -6.2,   -7.0,   -7.4,  999.0,   -6.3,  999.0,   -6.3,  999.0,   -5.8,   -7.8,  999.0,  999.0,   -7.9,   -9.5,  999.0,  999.0,  -10.0,  -10.7,  -11.7,  -11.8
1999/08/09 04:40,  -11.9,  -11.7,  -12.1,  -13.0,  -13.1,  -11.8,  -10.6,  -10.0,   -9.7,   -8.7,   -8.1,   -8.2,   -7.3,   -7.5,   -7.1,  999.0,   -5.9,   -6.4,   -8.6,  999.0,   -7.8,   -7.1,  999.0,  999.0,   -8.5,  999.0,  -10.0,  999.0,   -9.7,  -10.4,  -11.2,  -11.6
1999/08/09 04:50,  -11.5,  -11.7,  -12.5,  -11.8,  -11.8,  -12.4,  -10.6,  -10.6,   -9.4,   -9.2,  999.0,  999.0,   -6.8,  999.0,  999.0,  999.0,  999.0,   -5.7,  999.0,   -7.8,   -8.0,   -7.5,  999.0,  999.0,   -9.6,  -11.4,  -11.3,  -10.1,  -10.6,  999.0,  999.0,  999.0
1999/08/09 05:00,  -11.0,  -11.2,  -11.5,  -11.5,  -11.5,  -11.7,  -10.9,   -9.0,   -7.9,   -7.9,   -8.1,   -6.8,   -6.0,   -6.4,  999.0,  999.0,  999.0,   -5.9,   -5.3,   -5.5,   -5.6,  999.0,   -6.7,   -7.7,   -9.5,  -10.2,  -10.6,  999.0,  -10.1,  999.0,  -11.4,  999.0
1999/08/09 05:10,  -11.1,  -11.4,  -12.5,  -12.2,  -11.5,  -11.7,  -11.5,   -9.0,   -7.7,   -7.5,   -8.0,   -7.1,   -5.9,   -5.6,  999.0,  999.0,   -6.9,  999.0,  999.0,  999.0,  999.0,   -5.8,   -5.7,  999.0,  999.0,  999.0,   -9.4,   -9.7,   -9.8,  -10.5,  999.0,  999.0
1999/08/09 05:20,  -11.4,  -11.4,  -11.5,  -10.8,  -10.4,  -10.9,  -10.4,  -10.2,   -8.0,   -7.0,   -7.3,   -6.5,   -5.6,   -5.4,   -6.2,   -5.3,   -6.5,  999.0,  999.0,   -5.9,   -5.6,   -6.0,   -8.3,   -9.7,  -10.5,  -10.5,  -11.0,  -10.6,  -11.0,  -12.0,  999.0,  999.0
1999/08/09 05:30,  -10.9,  -11.6,  -11.7,  -11.4,  -11.0,  -10.3,   -8.9,   -8.2,   -8.5,   -7.7,   -7.9,   -7.2,   -5.9,   -5.6,   -5.9,   -6.3,   -7.3,   -7.7,   -8.9,   -8.1,   -7.5,  999.0,   -8.3,   -9.8,  -10.7,  -10.9,  -10.0,  -11.4,  -10.6,  999.0,  999.0,  999.0
1999/08/09 05:40,  -11.6,  -12.4,  -11.7,  -11.0,  -10.6,   -9.9,   -8.9,   -7.8,   -7.1,   -7.0,   -6.9,   -6.0,   -5.1,   -5.1,   -5.9,   -5.9,   -5.9,   -7.7,   -9.0,  -11.0,  -11.4,  -12.5,  -12.7,  -14.4,  -15.1,  -13.2,  -13.3,  -11.9,  999.0,  999.0,  999.0,  999.0
1999/08/09 05:50,  -10.7,  -10.9,  -10.8,  -10.4,  -11.1,  -11.4,  -10.5,   -9.4,   -7.5,   -6.7,   -7.0,   -7.4,   -7.9,   -7.8,   -7.9,   -7.9,   -8.0,   -7.2,   -6.9,   -8.2,   -9.5,  999.0,  -11.1,  999.0,  -11.8,  -13.0,  -11.2,  -10.9,  999.0,  999.0,  999.0,  999.0
1999/08/09 06:00,  -11.5,  -11.0,  -11.0,  -10.0,  -10.6,  -11.9,  -11.1,   -9.5,   -9.1,   -7.8,  999.0,   -6.3,  999.0,  999.0,  999.0,   -7.6,   -8.2,   -8.2,   -9.2,  -10.8,  -11.8,  -12.7,  -12.9,  999.0,  -13.7,  -15.3,  -13.9,  -13.1,  -13.6,  999.0,  999.0,  999.0
1999/08/09 06:10,  -10.3,  -10.2,  -10.6,  -10.1,   -9.3,  -10.0,  -10.2,   -9.1,  999.0,   -8.0,   -6.4,   -5.3,   -5.4,  999.0,   -6.6,   -7.7,  999.0,   -8.1,   -8.2,   -9.7,  -10.1,  -11.3,  -12.4,  999.0,  -14.0,  -15.6,  999.0,  -13.9,  -14.1,  999.0,  999.0,  999.0
1999/08/09 06:20,  -10.4,  999.0,  999.0,   -9.9,  -10.2,  -10.0,  -10.6,   -9.1,  999.0,  999.0,   -6.7,  999.0,  999.0,   -5.5,   -6.0,  999.0,   -7.3,   -6.7,   -6.8,   -7.0,   -8.3,  -10.4,  -11.7,  999.0,  999.0,  -13.6,  999.0,  999.0,  -13.2,  -14.3,  -15.5,  999.0
1999/08/09 06:30,  -10.7,  -10.6,  -11.5,  -10.9,  -10.0,   -9.9,   -9.9,   -8.9,   -8.5,   -7.7,  999.0,   -6.1,   -7.1,   -6.8,  999.0,   -9.0,   -9.2,   -6.9,   -6.7,   -6.6,   -7.9,  999.0,   -9.4,  -10.8,  999.0,  -11.0,  -12.1,  999.0,  999.0,  -12.7,  999.0,  999.0
1999/08/09 06:40,  -10.6,  -10.7,  999.0,  -11.3,  -10.1,  -11.0,  -11.1,   -9.7,  999.0,   -8.0,  999.0,  999.0,   -6.5,   -7.0,   -6.7,   -6.8,   -7.8,   -6.4,   -6.6,   -6.0,   -6.5,  999.0,  999.0,  999.0,  999.0,  999.0,  -11.4,  999.0,  999.0,  -11.3,  -13.0,  999.0
1999/08/09 06:50,  -11.2,  -11.1,  -10.8,  -10.1,   -9.8,   -9.5,   -9.3,   -8.6,   -7.8,   -7.6,  999.0,   -6.8,   -5.0,   -5.8,   -6.5,   -6.5,   -6.0,   -6.2,   -6.3,   -7.0,   -7.0,   -7.3,   -7.9,  999.0,   -9.4,  -10.5,  -11.8,  999.0,  999.0,  999.0,  999.0,  999.0
1999/08/09 07:00,  -12.4,  -13.2,  -11.3,   -8.8,  -11.1,   -9.6,   -9.7,  -10.0,   -7.9,   -7.2,  999.0,   -5.2,   -4.5,   -4.2,   -4.6,   -3.3,   -3.6,   -4.7,   -4.7,   -5.7,   -5.6,   -6.8,   -7.3,   -8.1,   -9.7,  -10.9,  999.0,  999.0,  999.0,  999.0,  999.0,  999.0
1999/08/09 07:10,  -10.3,  -11.3,  -12.4,  999.0,  999.0,  -11.2,   -9.6,   -8.6,   -8.2,  999.0,  999.0,  999.0,   -4.9,   -5.1,   -5.2,  999.0,  999.0,   -4.1,   -4.7,   -6.0,   -7.1,   -8.0,   -9.3,  -10.2,  -11.4,  999.0,  999.0,  999.0,  999.0,  999.0,  999.0,  999.0
1999/08/09 07:20,   -9.9,  -11.0,  -11.6,  -12.2,  -11.7,  -11.4,  -10.2,  -10.0,   -9.1,   -8.8,   -8.0,   -6.9,   -5.5,   -7.7,   -7.1,  999.0,   -5.4,   -5.6,  999.0,   -7.6,  999.0,   -9.7,  -10.4,  -11.8,  -12.5,  -14.0,  999.0,  999.0,  999.0,  999.0,  999.0,  999.0
1999/08/09 07:30,  -10.0,  -10.4,  -11.5,  -12.3,  -12.3,  -11.8,  -11.3,  -10.9,  999.0,  999.0,   -9.3,  999.0,   -9.9,   -9.8,  -10.5,  999.0,  999.0,  999.0,  999.0,  999.0,   -9.1,  -10.3,  -10.4,  -11.3,  -12.7,  -14.0,  999.0,  -13.8,  999.0,  999.0,  999.0,  999.0
1999/08/09 07:40,   -9.2,  -10.3,  -11.1,  -12.0,  -12.1,  -11.4,  -11.7,  -10.1,   -9.8,   -9.8,  -10.2,  -10.3,  -10.3,   -9.9,   -9.1,  999.0,  999.0,  999.0,  999.0,   -8.0,   -8.8,   -9.3,   -9.2,  -10.3,  -11.7,  -13.3,  999.0,  999.0,  999.0,  999.0,  999.0,  999.0
1999/08/09 07:50,   -9.3,   -9.7,  -11.1,  -11.8,  -11.5,  -11.2,  -10.9,   -9.7,  999.0,   -9.0,   -9.2,   -9.3,  999.0,   -8.8,   -8.1,  999.0,  999.0,  999.0,  999.0,  999.0,  999.0,   -8.1,   -8.2,   -8.8,   -9.7,  -11.2,  999.0,  999.0,  999.0,  999.0,  999.0,  999.0
1999/08/09 08:00,   -9.7,  999.0,  -11.6,  -12.4,  999.0,  -11.7,  -11.0,  -10.3,  -10.1,  -10.5,  -10.6,   -9.7,  -10.2,  999.0,   -9.9,  999.0,  999.0,   -7.1,  999.0,   -8.0,   -8.9,   -8.3,   -8.2,   -9.3,  -10.5,  999.0,  999.0,  999.0,  999.0,  999.0,  999.0,  -14.4
1999/08/09 08:10,   -9.8,  -10.9,  -12.6,  -12.6,  999.0,  -13.0,  -12.3,  -12.1,  -12.3,  -12.3,  -12.2,  -12.4,  -13.7,  999.0,  -12.2,   -9.3,   -9.4,   -9.5,  -10.9,  -10.7,   -9.4,   -9.1,  -10.6,  -10.8,  999.0,  999.0,  999.0,  999.0,  999.0,  999.0,  999.0,  999.0
1999/08/09 08:20,   -9.6,  -11.1,  -12.4,  -12.7,  999.0,  -12.4,  -11.3,  -10.3,  -10.4,  -10.7,  -11.8,  -11.3,  -11.8,  -13.2,  -11.1,  -10.0,  -10.2,  -11.1,  -10.1,   -9.6,   -9.0,   -9.5,  -11.4,  -12.3,  999.0,  999.0,  999.0,  999.0,  999.0,  999.0,  999.0,  999.0
1999/08/09 08:30,  -11.0,  -12.5,  -13.0,  -12.4,  -12.5,  -11.9,  -10.9,   -9.2,   -8.9,   -7.9,   -8.5,   -8.5,   -7.8,  999.0,   -8.4,   -7.2,   -6.8,   -8.2,   -9.4,   -7.2,  999.0,   -8.8,  999.0,  -11.5,  999.0,  999.0,  999.0,  999.0,  999.0,  999.0,  -13.8,  999.0
1999/08/09 08:40,   -9.8,  -10.8,  -12.0,  -13.0,  -12.0,  -10.9,   -9.7,   -9.2,   -9.2,   -9.3,   -9.7,   -9.9,   -9.8,  999.0,   -8.8,   -5.0,   -5.0,  999.0,   -7.6,  999.0,   -8.2,   -8.3,  999.0,  999.0,  999.0,  999.0,  999.0,  999.0,  999.0,  999.0,  -12.6,  999.0
1999/08/09 08:50,   -8.8,  -10.3,  -11.3,  -11.8,  -12.3,  -10.9,  -11.2,   -9.8,  -10.1,  -10.1,  -10.9,  -11.8,  -11.5,  -11.3,  -11.0,  999.0,   -8.7,  999.0,   -8.9,   -9.3,  -10.5,  999.0,  999.0,  999.0,  999.0,  999.0,  -15.8,  999.0,  999.0,  999.0,  999.0,  999.0
1999/08/09 09:00,   -9.9,  -11.3,  -11.6,  -11.6,  -11.7,  -11.2,  -11.1,  -10.5,  -10.4,  -10.1,  -10.7,  -11.1,  -11.0,  -11.1,  -11.2,   -8.8,   -8.5,   -8.4,   -9.3,   -9.1,  -10.1,  999.0,  999.0,  999.0,  -12.5,  999.0,  -16.2,  999.0,  999.0,  999.0,  999.0,  999.0
1999/08/09 09:10,  -10.1,  -11.2,  -12.1,  -11.6,  -11.2,  -10.4,  999.0,  -10.0,  -10.9,  -10.3,  -10.2,   -9.9,   -9.2,   -9.0,   -8.8,   -7.0,   -8.2,   -8.1,   -9.1,   -9.3,  999.0,  999.0,  999.0,  999.0,  -12.5,  -13.8,  999.0,  999.0,  999.0,  999.0,  999.0,  999.0
1999/08/09 09:20,   -8.9,  -10.5,  -11.0,  -11.7,  999.0,  -12.7,  -11.1,  999.0,  -10.6,  -11.4,   -9.7,  -10.4,   -8.7,   -9.5,  999.0,  999.0,  999.0,   -8.1,   -9.1,   -9.5,  -10.6,  999.0,  -13.2,  -12.7,  999.0,  999.0,  -16.0,  999.0,  999.0,  999.0,  999.0,  999.0
1999/08/09 09:30,   -8.5,   -9.8,  -11.1,  -12.4,  -10.5,  -11.1,  999.0,  -13.3,   -9.5,   -9.9,   -9.9,   -9.6,   -9.7,   -9.8,   -9.6,  999.0,  -10.4,   -9.8,   -9.9,   -9.7,  -10.5,  -11.4,  -12.5,  -12.0,  999.0,  -12.8,  999.0,  -13.2,  999.0,  999.0,  999.0,  999.0
1999/08/09 09:40,   -8.6,   -9.3,  -10.5,  -11.7,  999.0,  -10.3,  -11.9,  999.0,  -11.9,   -9.8,  -10.4,   -9.5,  -11.0,   -9.2,   -8.8,  999.0,   -9.7,  -10.1,  -10.3,   -9.6,  -10.8,  -11.9,  -12.0,  -11.0,  999.0,  999.0,  -14.6,  999.0,  999.0,  999.0,  999.0,  999.0
1999/08/09 09:50,   -8.2,   -9.0,  -10.9,  -11.6,  -13.4,  -11.8,  -11.7,  -11.1,  -11.2,  -11.6,  -11.3,  -10.5,  999.0,  -10.3,   -9.9,  -10.5,  -10.4,  -10.7,  -10.1,  -10.1,  -11.0,  -12.2,  -12.8,  999.0,  -13.9,  -14.3,  -15.8,  999.0,  999.0,  999.0,  999.0,  999.0
1999/08/09 10:00,   -6.8,   -7.8,  -10.0,  -11.5,  999.0,  999.0,  -11.3,  -10.3,  -12.0,  -11.6,  999.0,  999.0,   -7.4,  -10.7,   -8.1,  -10.1,   -9.4,   -9.9,   -9.0,   -9.8,  -10.7,  -11.5,  -12.5,  999.0,  999.0,  -13.3,  999.0,  999.0,  999.0,  999.0,  999.0,  999.0
1999/08/09 10:10,  -10.6,  -10.5,  -11.0,  -11.7,  -12.3,  -12.2,  -12.6,   -9.5,   -9.9,  -10.0,  -11.9,  -12.9,  999.0,   -9.9,  999.0,  -11.4,  -10.2,  999.0,   -9.2,  -10.3,  -11.1,  -12.0,  -12.7,  999.0,  999.0,  999.0,  -14.8,  999.0,  999.0,  999.0,  999.0,  999.0
1999/08/09 10:20,   -8.1,   -9.6,  -10.7,  -11.4,  -12.8,  -11.8,  999.0,  -12.2,  -11.8,  -11.8,  -11.7,  -10.8,  -10.6,  -10.4,  -10.6,  -10.4,   -9.8,   -8.6,  999.0,  -10.3,  -12.0,  999.0,  -12.3,  999.0,  999.0,  999.0,  999.0,  999.0,  999.0,  999.0,  999.0,  999.0
1999/08/09 10:30,   -9.8,  -10.1,  -10.7,  -12.7,  -14.3,  999.0,  999.0,  -12.0,  -12.7,  -12.6,  -11.9,  -12.8,  -11.4,  999.0,   -9.7,   -9.9,  999.0,  999.0,  999.0,  999.0,  999.0,  999.0,  -11.7,  999.0,  999.0,  999.0,  999.0,  999.0,  999.0,  999.0,  999.0,  999.0
1999/08/09 10:40,   -7.5,   -8.5,  -10.8,  -10.9,  -13.2,  999.0,  -14.1,  999.0,  -11.2,  -13.3,  999.0,  -12.1,  999.0,  -11.0,  999.0,  -11.1,  -11.6,  999.0,  -11.3,  999.0,  999.0,  999.0,  999.0,  999.0,  999.0,  999.0,  999.0,  999.0,  999.0,  999.0,  999.0,  999.0
1999/08/09 10:50,  999.0,  -10.0,  -11.1,  -10.9,  999.0,  999.0,  -13.4,  -13.3,  -11.7,  999.0,  -13.9,  -11.3,  -10.8,  -11.3,  -10.7,  -10.9,  -11.7,  999.0,   -9.9,  -11.5,  999.0,  999.0,  999.0,  999.0,  999.0,  999.0,  999.0,  999.0,  999.0,  999.0,  999.0,  999.0
1999/08/09 11:00,   -6.7,   -8.0,  -10.4,  -10.9,  999.0,  999.0,  -17.0,  -13.7,  -12.3,  -12.4,  -14.4,  -12.6,  -12.2,  999.0,  -12.6,  -12.2,  -10.0,  -10.1,  -10.4,  -11.2,  -13.1,  999.0,  -12.2,  999.0,  999.0,  999.0,  999.0,  999.0,  999.0,  999.0,  999.0,  999.0
1999/08/09 11:10,   -5.5,   -4.6,   -5.8,  -10.8,  999.0,  999.0,  -14.3,  999.0,  -10.5,  999.0,  999.0,  -11.2,  -11.8,  -10.2,  -11.2,  -10.9,  -10.3,  -11.4,  -12.2,  -10.9,  -10.4,  999.0,  999.0,  999.0,  999.0,  -13.7,  999.0,  999.0,  999.0,  999.0,  999.0,  999.0
1999/08/09 11:20,   -3.6,   -7.2,   -8.5,  -13.3,  999.0,  -12.3,  999.0,  -11.3,  -11.4,  -12.2,  -12.8,  -12.0,  999.0,  -11.8,  -12.3,  -11.1,  -11.2,  -11.6,  -12.7,  -13.2,  -13.9,  999.0,  -13.0,  999.0,  999.0,  999.0,  999.0,  999.0,  999.0,  999.0,  999.0,  999.0
1999/08/09 11:30,   -6.4,   -7.3,  -10.0,  -11.8,  -11.0,  999.0,  999.0,  -12.2,  -11.5,  -12.6,  -15.3,  -11.4,  999.0,  -12.5,  -12.3,  999.0,  999.0,  -12.4,  -13.8,  999.0,  999.0,  999.0,  999.0,  999.0,  999.0,  999.0,  999.0,  999.0,  999.0,  999.0,  999.0,  999.0
1999/08/09 11:40,   -6.7,  -10.6,  -11.3,  -13.5,  -13.4,  -13.6,  -15.4,  -13.0,  -13.0,  999.0,  -14.0,  -13.7,  -13.8,  -12.7,  -12.7,   -6.2,   -5.7,  -12.8,  -13.3,  -12.9,  999.0,  -14.1,  999.0,  999.0,  999.0,  999.0,  999.0,  999.0,  999.0,  999.0,  999.0,  999.0
1999/08/09 11:50,  -10.9,   -7.5,   -7.5,   -9.9,  -12.9,  -12.9,  -13.6,  -13.3,  -12.1,  -12.4,  -11.5,  -12.5,  -11.8,  -11.6,  -12.3,  999.0,  999.0,  999.0,  999.0,  999.0,  999.0,  999.0,  999.0,  999.0,  999.0,  999.0,  999.0,  -15.2,  999.0,  999.0,  999.0,  999.0
1999/08/09 12:00,   -8.5,   -9.0,   -9.0,  -11.2,  -14.1,  999.0,  999.0,  -12.4,  -12.5,  -12.5,  -12.2,  -11.2,  999.0,   -9.5,   -9.7,  -10.9,  999.0,  999.0,  999.0,  -11.2,  999.0,  999.0,  999.0,  999.0,  999.0,  -14.1,  -14.8,  -15.7,  999.0,  -15.7,  999.0,  999.0
1999/08/09 12:10,   -6.1,   -6.0,   -7.7,  -11.4,  -13.6,  -14.9,  -13.3,  -11.4,  -10.5,  -10.8,  -11.4,  -10.9,  -11.6,  -11.6,  -12.6,  999.0,   -1.8,  999.0,  999.0,  999.0,  999.0,  999.0,  999.0,  999.0,  999.0,  -11.9,  999.0,  999.0,  999.0,  -12.9,  999.0,  999.0
1999/08/09 12:20,  999.0,   -7.3,   -9.4,  -11.0,  -12.9,  -14.2,  -13.9,  -13.1,  999.0,  -12.0,  -12.2,  -11.8,  -12.1,  -11.3,  -11.9,  999.0,  999.0,   -5.8,  999.0,  999.0,  999.0,  999.0,  -13.2,  -12.5,  999.0,  999.0,  999.0,  999.0,  999.0,  999.0,  999.0,  999.0
1999/08/09 12:30,   -6.4,   -7.8,   -7.8,   -9.9,  -12.9,  -12.8,  -13.5,  999.0,  -14.5,  -13.6,  999.0,  999.0,  999.0,  -13.4,  -12.9,  999.0,   -6.9,  999.0,  999.0,  999.0,  -13.8,  999.0,  -13.0,  -14.5,  -14.6,  -13.9,  999.0,  999.0,  -14.5,  999.0,  999.0,  999.0
1999/08/09 12:40,  999.0,   -6.7,   -6.3,   -9.4,  -10.6,  -10.8,  -14.4,  -14.3,  -13.8,  -14.3,  -15.4,  -13.7,  -12.1,  -12.2,  -13.2,  999.0,  999.0,  -13.4,  999.0,  -13.5,  999.0,  999.0,  -14.5,  999.0,  999.0,  999.0,  999.0,  999.0,  999.0,  999.0,  999.0,  999.0
1999/08/09 12:50,   -4.8,   -5.7,   -7.0,   -9.8,  -11.2,  -12.2,  -14.3,  -13.9,  -14.1,  -13.8,  999.0,  -14.1,  -15.1,  -13.7,  999.0,  999.0,   -6.6,  -12.1,  -12.3,  -12.2,  -12.1,  -12.9,  -14.4,  -15.1,  999.0,  999.0,  999.0,  999.0,  999.0,  999.0,  999.0,  999.0
1999/08/09 13:00,   -6.5,   -7.8,   -7.8,   -8.8,  -10.3,  -11.8,  -15.5,  -15.5,  -14.8,  -15.2,  -15.9,  -15.6,  -15.2,  -15.4,  -13.7,   -9.2,  -13.8,  -13.1,  999.0,  999.0,  -12.8,  -14.0,  -15.1,  999.0,  999.0,  999.0,  999.0,  999.0,  999.0,  999.0,  999.0,  999.0
1999/08/09 13:10,   -6.9,   -7.9,   -8.8,  -10.4,  -11.5,  999.0,  -12.6,  -14.4,  -15.0,  -14.0,  -13.8,  -13.7,  -14.3,  -14.4,  -15.1,   -8.6,  999.0,  999.0,  999.0,  999.0,  -12.2,  -13.2,  -13.7,  999.0,  999.0,  999.0,  999.0,  999.0,  999.0,  999.0,  999.0,  999.0
1999/08/09 13:20,   -6.8,   -6.9,   -8.3,   -8.1,  -11.2,  -12.3,  -13.5,  -14.2,  -14.6,  -13.2,  -13.1,  -12.8,  -12.8,  -13.1,  -13.2,  999.0,   -5.1,   -8.6,  -10.7,  999.0,  -10.6,  -11.7,  -12.9,  -13.7,  -14.7,  999.0,  999.0,  999.0,  999.0,  999.0,  -15.1,  999.0
1999/08/09 13:30,   -6.3,   -7.2,  999.0,  999.0,  -10.2,  -10.6,  -12.1,  -13.5,  -13.3,  -11.6,  -11.8,  -10.6,  -12.0,  -12.6,  999.0,  999.0,  999.0,  999.0,  -11.8,  999.0,  999.0,  -11.3,  -12.2,  -12.4,  999.0,  -14.3,  999.0,  999.0,  999.0,  999.0,  999.0,  999.0
1999/08/09 13:40,  999.0,   -7.7,  999.0,  999.0,  -10.1,  -10.8,  -11.7,  -12.0,  -12.1,  -11.5,  -11.1,  -11.1,  -11.0,  -11.9,  999.0,  999.0,   -5.2,  999.0,  999.0,  999.0,  999.0,  -11.6,  -12.1,  -12.4,  -13.3,  999.0,  999.0,  999.0,  999.0,  999.0,  999.0,  999.0
1999/08/09 13:50,   -7.4,   -7.2,   -7.7,   -9.6,   -9.6,   -9.9,  -11.2,  -11.6,  -12.0,  -10.8,  -10.7,  -10.7,  -11.5,  -11.8,   -6.6,  999.0,  999.0,  999.0,  999.0,  999.0,   -9.9,  -10.7,  -12.0,  999.0,  -13.3,  999.0,  -13.9,  999.0,  999.0,  999.0,  999.0,  999.0
1999/08/09 14:00,   -6.0,   -6.2,   -7.0,  999.0,   -9.1,  -10.2,  -11.3,  -11.6,  -11.6,  -10.2,  -10.3,  -10.3,  -10.4,  -10.7,   -5.4,  999.0,  999.0,   -8.9,  999.0,  999.0,  999.0,   -9.6,  -10.7,  999.0,  -12.4,  999.0,  -13.2,  999.0,  999.0,  999.0,  999.0,  999.0
1999/08/09 14:10,   -5.0,   -7.3,   -7.9,  -10.0,  -11.5,  -12.4,  -12.6,  -12.7,  -13.1,  -12.2,  -12.7,  -11.7,  -12.1,  999.0,  999.0,  999.0,  999.0,   -9.7,  999.0,   -8.1,   -8.9,   -9.5,  -10.9,  999.0,  -11.6,  999.0,  999.0,  999.0,  999.0,  999.0,  999.0,  999.0
1999/08/09 14:20,   -2.8,   -3.6,   -7.0,   -7.9,  999.0,  -11.6,  -12.5,  -12.6,  -12.7,  -12.2,  -12.3,  -12.5,  999.0,  -13.0,  999.0,  999.0,  999.0,  -11.4,  999.0,  999.0,   -9.6,   -9.6,  999.0,  999.0,  -12.1,  -12.9,  -13.4,  999.0,  999.0,  999.0,  -14.6,  999.0
1999/08/09 14:30,   -4.1,   -4.1,   -5.3,   -5.6,  999.0,  999.0,  -10.5,  -11.4,  -11.4,  -10.6,  -10.2,   -9.9,  999.0,  -11.2,  999.0,   -4.1,  999.0,  -10.3,  999.0,  999.0,  999.0,  999.0,  999.0,  999.0,  -12.7,  999.0,  999.0,  999.0,  999.0,  999.0,  999.0,  999.0
1999/08/09 14:40,   -2.5,   -3.4,   -3.0,   -3.4,  999.0,   -7.5,   -7.7,   -8.9,  -10.1,   -9.6,   -8.8,   -9.3,   -9.5,  -10.0,  -10.2,  999.0,  999.0,   -9.8,   -9.9,   -9.5,  999.0,  999.0,  999.0,  999.0,  -11.8,  -12.7,  999.0,  999.0,  999.0,  -14.3,  999.0,  999.0
1999/08/09 14:50,   -2.5,   -3.2,   -3.4,   -4.3,  999.0,   -7.9,   -8.8,  -10.2,  -11.0,  -10.8,   -9.3,  -10.9,  -11.3,  -11.9,  -11.6,  999.0,  -11.6,  -11.2,  -10.7,  -11.2,  -11.0,  999.0,  999.0,  999.0,  -13.4,  999.0,  999.0,  999.0,  999.0,  999.0,  999.0,  999.0
1999/08/09 15:00,   -1.8,   -3.2,   -4.0,  999.0,   -6.1,   -8.1,   -8.9,  -11.2,  -11.6,  -10.6,  -11.1,  -10.7,  -11.1,  -12.2,  -11.3,  999.0,  -11.5,  999.0,  999.0,  999.0,  999.0,  999.0,  -10.7,  -12.3,  -13.1,  -13.4,  999.0,  -14.0,  999.0,  999.0,  999.0,  999.0
1999/08/09 15:10,   -3.2,   -3.1,   -2.6,   -4.6,  999.0,  999.0,   -7.8,   -9.0,  -10.6,  -10.3,   -9.6,   -9.7,   -9.6,  -10.5,  999.0,  999.0,  -10.1,  -10.3,  -10.9,  -10.4,  -10.0,  999.0,  999.0,  999.0,  -11.9,  999.0,  999.0,  -13.6,  999.0,  999.0,  999.0,  999.0
1999/08/09 15:20,   -3.7,   -3.3,  999.0,   -6.2,  999.0,   -7.9,  999.0,  -10.2,  -11.0,  -10.2,  999.0,   -9.8,  -10.0,  -11.1,  -10.2,  -10.9,  -10.6,  -11.6,  -11.9,  -11.3,  -11.0,  -10.2,  999.0,  999.0,  -13.2,  999.0,  999.0,  -14.4,  999.0,  999.0,  999.0,  999.0
1999/08/09 15:30,   -2.3,  999.0,  999.0,  999.0,  999.0,  999.0,   -8.4,   -9.4,  -10.0,   -9.4,  -10.0,  -10.2,  -10.5,  -10.4,  -10.6,  -10.0,  -11.1,  -12.0,  -12.5,  -11.6,  -11.3,  -11.4,  999.0,  999.0,  -13.2,  999.0,  999.0,  -14.2,  999.0,  999.0,  999.0,  -15.1
1999/08/09 15:40,   -2.2,  999.0,  999.0,   -5.6,  999.0,  999.0,  999.0,   -9.5,   -9.2,   -8.3,   -9.1,   -9.4,   -9.7,  -10.4,  -10.5,  999.0,   -9.8,  -11.5,  -12.6,  -11.1,  -11.0,  -10.8,  999.0,  999.0,  -13.4,  999.0,  999.0,  -14.1,  -15.2,  999.0,  999.0,  999.0
1999/08/09 15:50,   -2.9,   -3.1,  999.0,  999.0,  999.0,   -5.7,   -5.8,   -8.0,   -9.2,   -8.2,   -8.1,   -8.3,  999.0,   -8.5,   -9.8,  999.0,   -9.6,  -10.5,  -11.7,  -12.4,  -11.4,  -11.5,  -11.6,  -11.4,  -13.2,  999.0,  999.0,  -14.8,  -16.0,  -16.8,  -17.1,  999.0
1999/08/09 16:00,   -2.8,  999.0,   -3.7,  999.0,   -4.8,  999.0,   -7.0,   -8.5,  999.0,   -8.4,   -8.3,   -8.1,  999.0,   -9.2,  -10.0,   -5.5,  -10.0,  -10.7,  -12.2,  -12.7,  -12.0,  -11.7,  999.0,  -13.3,  -13.4,  999.0,  999.0,  -15.8,  -16.1,  -17.2,  999.0,  999.0
1999/08/09 16:10,   -3.9,   -3.6,  999.0,  999.0,   -4.6,   -5.4,   -6.8,   -8.1,   -8.9,   -8.6,   -8.5,   -8.1,   -8.7,   -9.9,  -11.0,   -5.0,  -11.4,  -12.5,  -13.3,  999.0,  -12.4,  -12.3,  -12.5,  -13.8,  -14.5,  999.0,  -15.6,  -16.7,  -16.6,  -16.7,  999.0,  999.0
1999/08/09 16:20,   -3.3,   -3.3,   -3.7,  999.0,   -4.2,   -5.6,   -6.4,  999.0,  999.0,   -8.7,   -8.8,   -8.6,   -8.4,   -9.9,  -10.4,  999.0,  999.0,  -11.9,  -13.1,  -12.4,  -11.8,  -12.3,  -12.5,  -13.1,  -14.0,  -14.1,  -15.0,  -15.4,  999.0,  999.0,  999.0,  -14.7
1999/08/09 16:30,   -5.6,   -2.2,   -2.9,  999.0,  999.0,   -4.3,   -5.6,   -7.7,  999.0,   -9.9,   -9.8,   -9.8,   -8.9,  -10.2,  -10.5,  -10.9,  -11.2,  -12.1,  -13.6,  -13.4,  -12.3,  -12.5,  -12.8,  -13.2,  -14.8,  -15.1,  -16.3,  999.0,  999.0,  999.0,  -16.4,  -16.3
1999/08/09 16:40,   -3.2,   -2.2,   -2.6,   -4.7,   -4.4,   -4.3,   -4.9,   -7.0,   -9.0,  -10.4,  -11.0,  -10.2,   -9.5,  -10.8,  -11.4,  -11.7,  -11.9,  -12.4,  -13.3,  -13.3,  -11.9,  -12.0,  -12.3,  -13.9,  -14.3,  -15.3,  999.0,  999.0,  999.0,  999.0,  999.0,  999.0
1999/08/09 16:50,   -2.9,   -2.0,  999.0,  999.0,  999.0,  999.0,   -4.9,   -7.1,   -8.3,   -9.8,  999.0,  -10.4,   -9.9,  -11.7,  -12.0,  -12.1,  -12.6,  -13.1,  -14.0,  -14.0,  -12.4,  -12.6,  -13.5,  -15.3,  999.0,  -15.5,  999.0,  999.0,  999.0,  999.0,  999.0,  999.0
1999/08/09 17:00,   -2.6,   -1.7,  999.0,  999.0,   -3.9,   -3.9,   -4.4,   -6.9,   -8.2,   -9.1,  999.0,  -10.1,  -10.5,  -11.0,  -11.6,  -11.6,  -12.2,  -13.6,  -14.2,  -12.8,  -12.7,  -13.2,  -14.6,  -15.2,  -15.4,  -15.6,  999.0,  999.0,  999.0,  999.0,  999.0,  999.0
1999/08/09 17:10,   -2.7,   -2.1,  999.0,  999.0,   -4.2,   -4.1,   -4.5,  999.0,  999.0,  999.0,   -9.4,  999.0,  -10.6,  -10.4,  -11.1,  -11.5,  -11.7,  -13.1,  -13.3,  -12.1,  -12.4,  -13.8,  -15.2,  -15.2,  -13.7,  -13.9,  999.0,  999.0,  999.0,  999.0,  999.0,  999.0
1999/08/09 17:20,   -2.6,   -2.6,  999.0,  999.0,   -2.9,  999.0,   -4.8,   -6.8,  999.0,  999.0,  999.0,  -10.2,  -10.4,  -10.4,  -11.1,  -11.9,  -12.7,  -13.2,  -13.8,  -12.3,  -12.7,  -13.9,  -15.1,  -15.3,  999.0,  -14.1,  -15.0,  999.0,  999.0,  999.0,  999.0,  999.0
1999/08/09 17:30,   -3.0,   -2.3,  999.0,  999.0,  999.0,  999.0,   -5.5,   -7.1,  999.0,  999.0,   -9.5,  -10.2,  -10.2,  -11.5,  -11.7,  -11.6,  -12.2,  -12.8,  -13.5,  -12.4,  -12.6,  -13.8,  -14.0,  999.0,  -13.6,  -13.8,  999.0,  999.0,  999.0,  999.0,  999.0,  999.0
1999/08/09 17:40,   -3.7,   -2.1,  999.0,   -2.9,   -2.9,   -3.2,  999.0,   -6.4,   -8.5,   -9.0,  -11.2,  -11.5,  -11.3,  -11.9,  -11.5,  -11.7,  -12.3,  -13.0,  -12.8,  -12.0,  -12.7,  -13.8,  -14.0,  -14.1,  -14.4,  999.0,  999.0,  999.0,  999.0,  -17.8,  999.0,  999.0
1999/08/09 17:50,   -3.0,  999.0,  999.0,  999.0,   -3.8,  999.0,   -5.0,   -6.1,   -8.0,   -9.5,  -10.4,  -10.4,  -11.0,  -11.8,  -11.6,  -11.2,  -12.1,  -12.8,  -12.7,  -11.7,  -12.5,  -13.6,  -13.9,  -15.0,  999.0,  999.0,  999.0,  999.0,  999.0,  -16.2,  999.0,  999.0
1999/08/09 18:00,  999.0,  999.0,  999.0,   -2.5,   -3.2,  999.0,   -4.8,   -6.1,   -8.4,   -9.8,  -10.2,  999.0,  -11.3,  -11.8,  -11.4,  -11.7,  -11.5,  -12.5,  -12.0,  -12.3,  -12.8,  -13.8,  -14.3,  -14.8,  999.0,  999.0,  999.0,  999.0,  999.0,  999.0,  999.0,  999.0
1999/08/09 18:10,   -2.7,  999.0,   -2.8,   -2.8,  999.0,   -3.4,   -5.5,   -7.3,   -8.4,   -9.9,  -10.5,  -10.9,  -11.9,  -12.0,  -11.4,  -11.4,  -11.6,  -11.7,  -12.3,  -12.6,  -13.6,  -14.4,  -14.3,  999.0,  999.0,  999.0,  999.0,  999.0,  -17.2,  999.0,  999.0,  999.0
1999/08/09 18:20,   -2.5,  999.0,   -2.8,  999.0,  999.0,  999.0,   -4.8,   -6.6,   -7.9,   -9.6,  999.0,  -11.0,  999.0,  -11.7,  999.0,  -12.1,  -12.3,  -12.3,  -12.7,  -12.7,  -13.9,  999.0,  -14.3,  999.0,  999.0,  999.0,  -17.6,  -17.6,  999.0,  999.0,  -16.5,  999.0
1999/08/09 18:30,   -3.9,  999.0,   -1.7,   -1.7,  999.0,  999.0,   -5.3,   -6.8,   -8.5,   -9.5,   -9.3,  -10.8,  -10.6,  -11.4,  -11.3,  -12.2,  -11.2,  -11.9,  -12.1,  -12.2,  -13.7,  999.0,  -14.6,  999.0,  999.0,  999.0,  -16.9,  999.0,  999.0,  -16.7,  999.0,  999.0
1999/08/09 18:40,  999.0,   -2.7,   -1.7,   -1.3,   -2.7,  999.0,   -4.6,   -6.8,   -8.5,   -8.9,   -9.8,  -10.3,  -10.1,  -11.6,  -11.4,  -11.8,  -10.6,  999.0,  -10.9,  -12.1,  999.0,  -13.5,  -14.4,  999.0,  999.0,  999.0,  -16.7,  999.0,  999.0,  999.0,  999.0,  999.0
1999/08/09 18:50,   -2.8,   -3.0,  999.0,   -1.4,  999.0,   -3.9,   -4.9,   -7.1,   -8.4,   -9.9,  -11.2,  -10.9,  -10.9,  -11.8,  -11.7,  -12.2,  -10.4,  -11.0,  -11.5,  -12.4,  -13.3,  999.0,  999.0,  999.0,  999.0,  999.0,  999.0,  999.0,  999.0,  999.0,  999.0,  999.0
1999/08/09 19:00,   -2.2,   -1.0,  999.0,   -1.2,   -1.6,  999.0,  999.0,   -7.2,   -8.6,  -10.4,  -10.8,  -10.9,  -11.2,  -11.6,  -12.1,  -12.0,  -10.1,  -10.5,  999.0,  -11.4,  -12.4,  999.0,  999.0,  999.0,  999.0,  999.0,  999.0,  999.0,  999.0,  999.0,  999.0,  999.0
1999/08/09 19:10,   -2.1,   -1.4,   -1.1,   -1.0,   -2.3,   -4.4,   -5.9,   -7.4,   -9.0,  -10.3,  -10.0,  -10.9,  -10.7,  -11.0,  -11.9,  -11.4,  -10.9,  -11.0,  -10.6,  -11.2,  -11.2,  999.0,  -13.4,  999.0,  -14.4,  -15.7,  999.0,  999.0,  999.0,  999.0,  -16.0,  999.0
1999/08/09 19:20,   -2.8,  999.0,  999.0,   -1.1,   -2.6,  999.0,   -5.2,   -6.7,   -9.7,  -10.3,  -10.6,  -10.7,  -10.7,  -10.8,  -11.6,  -11.0,  -11.0,  -10.9,  -10.5,  999.0,  -12.6,  -13.3,  999.0,  999.0,  -14.1,  999.0,  999.0,  999.0,  999.0,  999.0,  999.0,  999.0
1999/08/09 19:30,   -2.7,   -1.5,   -1.0,   -1.4,   -2.4,   -3.7,   -4.3,   -6.7,   -9.5,  -10.6,  999.0,  -10.8,  -10.9,  -10.8,  -11.4,  -11.1,  999.0,  -10.9,  999.0,  -12.3,  -12.6,  999.0,  999.0,  999.0,  -13.3,  999.0,  999.0,  999.0,  999.0,  999.0,  999.0,  999.0
1999/08/09 19:40,   -3.0,   -2.1,   -1.0,   -1.1,   -3.3,   -4.3,   -5.2,   -6.8,   -9.4,  -11.3,  -10.7,  -10.3,  -10.6,  -10.7,  -11.0,  -11.0,  -10.6,  999.0,  -11.0,  -12.0,  999.0,  999.0,  999.0,  -13.1,  -13.7,  -14.4,  999.0,  999.0,  999.0,  999.0,  999.0,  999.0
1999/08/09 19:50,   -2.0,   -1.5,  999.0,  999.0,  999.0,  999.0,   -5.0,  999.0,   -9.7,  -11.6,  999.0,  -10.3,  -10.6,  -10.3,  -11.0,  -11.3,  -10.7,  999.0,  -11.7,  -12.6,  999.0,  999.0,  -13.4,  999.0,  999.0,  999.0,  999.0,  999.0,  999.0,  999.0,  999.0,  999.0
1999/08/09 20:00,   -1.2,   -1.1,   -1.0,  999.0,  999.0,   -4.4,  999.0,   -8.1,  -11.3,  -11.3,  -11.1,  -11.8,  999.0,  -10.2,  -10.6,  -11.0,  -10.3,  -10.7,  -11.2,  -11.6,  -12.4,  -13.0,  -12.4,  -12.8,  999.0,  999.0,  999.0,  -15.7,  999.0,  999.0,  999.0,  999.0
1999/08/09 20:10,   -3.2,   -2.6,   -1.3,  999.0,   -2.5,  999.0,  999.0,   -7.8,  -10.4,  -10.0,  -10.4,  -11.2,  -10.5,  -10.2,  -10.4,  -10.4,  -10.5,  -11.1,  999.0,  -12.6,  -13.0,  -13.4,  -12.6,  999.0,  999.0,  999.0,  -14.8,  -15.5,  999.0,  999.0,  999.0,  999.0
1999/08/09 20:20,   -2.0,   -1.0,  999.0,  999.0,  999.0,  999.0,   -6.6,   -8.7,  -10.2,  -10.6,  -10.4,  -10.1,   -9.7,  -10.1,  -10.3,   -9.8,  -10.7,  -11.7,  -12.4,  -12.5,  -12.6,  -13.1,  999.0,  -12.9,  999.0,  999.0,  999.0,  999.0,  999.0,  999.0,  999.0,  999.0
1999/08/09 20:30,  999.0,  999.0,  999.0,    0.1,   -3.1,  999.0,   -6.2,   -9.4,  -10.0,  -10.3,  -11.2,   -9.5,   -9.7,  -10.1,  -10.5,  -10.1,  -12.5,  -13.3,  -13.8,  -13.4,  -13.1,  -13.2,  999.0,  999.0,  999.0,  999.0,  -13.8,  999.0,  999.0,  999.0,  999.0,  999.0
1999/08/09 20:40,   -1.2,   -0.5,   -0.7,  999.0,   -4.1,   -5.2,   -6.9,   -9.5,  -10.6,  -11.2,  -11.9,  -10.3,  -10.4,  -10.4,  -10.7,  -10.4,  -11.9,  -12.5,  -13.3,  -13.1,  -12.5,  -12.9,  -12.5,  999.0,  -12.2,  -13.1,  999.0,  999.0,  999.0,  999.0,  -15.6,  -17.0
1999/08/09 20:50,   -0.7,  999.0,   -1.2,   -0.6,  999.0,  999.0,   -6.2,  -10.0,  -10.6,  -11.1,  -11.4,  -10.4,  999.0,   -9.9,  -10.8,  -10.7,  -11.3,  -12.0,  -12.9,  -13.3,  -12.7,  -12.1,  -12.5,  -12.3,  999.0,  -11.9,  999.0,  -13.1,  999.0,  -15.6,  999.0,  999.0
1999/08/09 21:00,  999.0,  999.0,  999.0,  999.0,  999.0,   -4.3,   -5.8,   -9.6,  -11.0,  -10.9,  -10.7,   -9.7,  -10.7,  -10.9,  -11.2,  -11.4,  -12.4,  -13.2,  -12.9,  -12.6,  -12.4,  -12.8,  -12.4,  999.0,  -13.5,  999.0,  999.0,  -13.4,  -14.0,  999.0,  999.0,  999.0
1999/08/09 21:10,  999.0,   -0.1,  999.0,   -1.4,   -4.5,   -5.7,   -6.5,   -9.5,  -10.9,  -10.3,  -10.3,  -10.0,  -10.6,  -11.6,  -11.6,  -12.2,  -13.7,  -13.4,  -12.7,  -12.2,  -11.7,  -12.9,  -12.5,  999.0,  999.0,  -14.0,  -13.8,  -14.8,  -14.2,  -14.8,  999.0,  999.0
1999/08/09 21:20,  999.0,  999.0,   -0.3,  999.0,   -3.7,   -5.6,   -7.4,   -9.6,   -9.6,   -9.4,   -9.5,  -10.1,  -10.7,  -10.7,  -11.8,  -12.1,  -12.8,  -12.9,  -11.4,  -12.3,  -11.9,  -13.0,  -12.8,  999.0,  999.0,  999.0,  999.0,  999.0,  999.0,  999.0,  999.0,  999.0
1999/08/09 21:30,    0.0,   -0.3,  999.0,  999.0,   -4.9,   -5.8,  999.0,  -10.0,  -11.2,   -9.7,  -10.4,  -10.2,  -11.1,  -11.5,  -12.3,  -12.3,  -12.5,  -12.2,  -12.3,  -12.3,  -11.4,  -12.7,  -12.4,  -12.8,  -12.9,  -13.2,  -14.4,  999.0,  999.0,  -13.6,  -13.6,  -15.0
1999/08/09 21:40,  999.0,  999.0,  999.0,  999.0,  999.0,  999.0,  999.0,   -8.5,   -9.3,   -9.4,   -9.5,  -10.0,  -10.4,  -11.1,  -11.8,  -11.5,  -12.4,  999.0,  -10.2,  -10.5,  -10.5,  -10.8,  999.0,  -10.6,  -11.2,  -11.4,  -12.1,  -12.6,  -12.4,  -14.5,  -14.8,  -15.8
1999/08/09 21:50,  999.0,  999.0,  999.0,   -1.8,  999.0,  999.0,   -8.2,   -8.4,   -8.4,   -8.8,   -7.8,  -10.2,  -10.6,  -10.9,  -11.4,  999.0,  -10.5,  -11.2,  -10.2,  -10.8,  -10.7,  -10.5,  -11.0,  999.0,  -10.2,  -11.4,  -12.7,  -13.2,  -13.1,  -14.3,  -14.7,  -14.5
1999/08/09 22:00,  999.0,  999.0,  999.0,  999.0,  999.0,  999.0,   -7.2,   -7.9,   -7.4,   -8.2,   -9.4,  -10.0,   -9.8,  -11.0,  -12.7,  -10.8,  -10.8,  -10.2,  -10.3,  -10.1,   -9.5,  -10.0,  -10.1,  999.0,  -13.9,  999.0,  -14.1,  -14.5,  -13.3,  -15.0,  999.0,  -14.9
1999/08/09 22:10,  999.0,  999.0,  999.0,   -1.3,  999.0,  999.0,   -7.9,   -7.3,   -8.8,  999.0,   -8.6,   -9.8,  -11.2,  -11.6,  -11.7,  -10.1,  -10.4,  -10.8,   -9.2,   -9.1,  999.0,  999.0,  -11.3,  -13.0,  -14.1,  -14.9,  -15.1,  -15.8,  -17.1,  -17.3,  -17.5,  -18.7
1999/08/09 22:20,  999.0,  999.0,   -0.5,   -1.0,  999.0,  999.0,   -7.5,   -7.8,   -7.8,   -9.7,   -9.2,   -9.9,  -11.9,  -12.8,  999.0,  999.0,  -12.3,  -12.1,  -12.0,  -12.5,  -11.1,   -9.7,   -9.1,  -11.5,  -12.6,  -14.0,  999.0,  -14.5,  -15.0,  -13.9,  -14.6,  -15.6
1999/08/09 22:30,   -0.0,  999.0,    0.5,  999.0,  999.0,  999.0,   -7.4,  999.0,   -8.3,   -9.1,   -9.6,   -9.9,  -10.1,  -10.5,  -11.1,  -11.1,  -12.2,  -12.2,  -12.2,  -12.0,  -10.6,   -9.2,   -8.4,   -9.5,  -11.3,  -13.1,  999.0,  999.0,  999.0,  999.0,  -15.8,  -15.7
1999/08/09 22:40,    0.2,  999.0,  999.0,  999.0,   -4.5,  999.0,  999.0,  999.0,   -9.2,   -9.2,  -10.0,  -10.9,  -11.2,  -11.0,   -9.8,  -10.5,  -10.9,  -12.4,  -11.4,  -10.4,  -10.7,   -9.5,   -9.6,   -9.2,  -10.4,  -12.2,  999.0,  -13.3,  -12.6,  -14.1,  -14.4,  -14.8
1999/08/09 22:50,   -0.0,    0.3,  999.0,   -0.7,   -4.8,  999.0,  999.0,   -8.2,   -8.8,   -9.2,   -9.8,  -10.1,  -10.7,  -10.0,   -9.7,  -10.2,  -10.6,  -12.1,  -12.0,  -12.4,  -12.5,  -12.5,   -9.7,   -8.5,  -10.1,  -11.0,  -12.3,  -13.1,  999.0,  999.0,  999.0,  999.0
1999/08/09 23:00,   -0.4,   -0.3,  999.0,   -1.9,   -4.4,   -6.9,   -8.1,   -8.4,   -8.3,   -9.3,   -9.8,  -10.0,  -10.2,  -10.5,  -11.4,  -12.8,  -13.3,  -12.8,  -12.0,  -11.2,  -10.6,  -10.6,  -11.0,  999.0,  999.0,  -12.0,  -12.3,  -12.8,  999.0,  -14.4,  999.0,  999.0
1999/08/09 23:10,   -0.6,   -0.7,    0.2,   -2.0,   -3.6,  999.0,   -7.0,   -8.1,   -8.7,   -9.2,   -9.6,   -9.8,   -9.8,  999.0,  -11.7,  -11.8,  -12.7,  -12.3,  -11.6,  -11.3,  -11.3,  -11.3,  -11.1,  -10.5,  -10.3,  -11.5,  -12.0,  -12.0,  -13.0,  -13.7,  -15.3,  999.0
1999/08/09 23:20,  999.0,    0.1,  999.0,   -1.6,  999.0,   -7.4,   -7.8,  999.0,  999.0,   -9.0,   -9.4,   -9.7,   -9.8,  -10.4,  -11.2,  -11.4,  -11.5,  -12.0,  -11.8,  -11.1,  -11.1,  -11.4,  -10.9,  999.0,  -10.8,  999.0,  999.0,  -13.0,  -13.3,  -14.2,  -15.2,  999.0
1999/08/09 23:30,    0.5,   -0.6,  999.0,   -2.7,   -4.6,   -7.0,   -7.8,   -8.1,  999.0,   -9.1,  -10.2,  999.0,  -10.0,  -10.4,  -11.4,  -11.5,  -12.9,  -11.6,  -11.8,  999.0,  -10.9,  -11.2,  -11.0,  -11.5,  999.0,  999.0,  999.0,  999.0,  999.0,  -13.1,  -13.8,  999.0
1999/08/09 23:40,  999.0,    0.3,   -0.7,   -3.5,   -4.0,  999.0,  999.0,   -7.2,   -7.8,   -8.5,   -9.4,   -9.8,  -10.5,  -10.7,  -11.1,  -11.3,  -12.9,  -12.6,  -12.1,  -11.4,  -11.6,  -11.4,  -11.4,  -11.2,  -11.4,  -12.8,  999.0,  -13.4,  -13.7,  -14.0,  -14.5,  -15.6
1999/08/09 23:50,  999.0,  999.0,   -0.2,   -1.7,   -4.6,   -6.3,   -6.8,   -6.6,   -7.5,  999.0,   -8.8,  999.0,  -10.1,  -10.7,  -11.7,  -11.6,  -12.0,  -12.5,  -11.7,  999.0,  -10.4,  -10.1,  -10.3,  -10.8,  -11.5,  -12.2,  -13.1,  999.0,  999.0,  -13.1,  -14.5,  999.0
